Vertical_Velocity
-4 3 1 28 8 -1 2 14 -1 1 7 -10 -12 -17 -30 -28 -4 -3 -2 -3 -1 -1 -1 -1 -1 -4 -3 -1 1 1 3 1 0 -0 -1 4 -1 -1 2 0 -1 -7 1 0
-3 -3 -2 1 2 2 1 -3 -0 4 -10 34 -9 43 -14 -2 -13 0 6 -3 -2 0 -3 -3 -1 -3 -3 -1 1 1 -0 -2 -3 -0 2 11 -3 0 2 2 2 -6 -2 2
5 -3 -7 3 9 11 11 8 -4 -15 0 -0 -11 1 130 19 11 7 -2 -3 -1 -2 -3 -2 -1 -2 -0 -3 -0 -1 -0 -0 1 1 0 7 -2 1 3 2 1 -2 -3 -4
9 4 13 14 1 -4 2 -2 3 -3 8 7 -14 41 -11 18 8 10 -6 -3 -2 -3 -4 -3 -0 -2 -3 -0 -2 -1 1 -2 -0 -1 5 10 -0 1 2 1 0 1 -0 0
-3 2 15 -2 -8 -6 -0 3 8 4 11 2 10 12 2 -1 9 0 -1 -3 -2 -3 -2 -4 -3 -1 -2 0 -2 4 1 4 1 -1 7 5 1 -3 1 1 -1 1 -1 1
2 0 3 1 -2 0 -2 1 -1 -3 -7 -4 -3 -20 -1 -1 -0 -1 -3 -3 -1 -1 -1 -2 -4 -3 0 -2 -0 4 14 22 14 7 3 6 1 4 10 3 -1 -0 0 -1
-1 1 -0 -3 4 8 12 13 3 22 46 25 4 4 4 -2 -3 -3 -0 -1 0 -2 -2 -3 -2 1 -0 -5 -1 -1 6 55 12 3 -0 1 2 1 2 2 1 1 3 3
-0 0 0 -2 4 1 2 8 2 17 24 23 0 0 1 1 -0 -1 0 0 -0 1 1 -1 -2 -2 1 -2 -1 -1 -0 3 9 9 4 1 1 2 3 0 -0 -1 1 1
-5 -2 3 -4 0 6 2 2 20 2 18 5 1 1 -1 2 6 6 3 -1 -0 -2 -1 1 0 -0 -1 -1 -2 -0 -8 -6 24 27 6 4 1 1 1 3 2 -1 -1 2
-1 -4 -3 -2 -1 4 -1 5 10 42 1 1 1 9 3 6 4 4 2 -2 0 1 1 2 1 -0 0 1 0 0 1 -3 3 -1 45 4 1 3 4 5 1 -1 -1 -1
-7 -5 -4 -4 -3 1 -2 5 11 19 4 -1 -2 -1 2 2 4 1 5 4 0 -1 1 -2 0 1 -0 1 1 -1 3 1 -0 3 -9 8 25 14 10 7 3 9 0 0
-5 5 -0 -1 -1 2 1 -4 6 -2 14 -1 1 -2 -3 2 2 0 1 1 3 -0 -0 -3 -3 2 2 0 -0 -1 -6 -4 -1 2 3 -4 -4 4 5 5 4 6 1 2
3 -5 -4 -1 -5 1 0 -3 -5 -2 -0 -2 13 -1 1 3 1 -0 2 2 1 -0 1 1 -1 -4 -4 1 -0 -2 -1 -3 -0 -4 -6 2 4 -1 -1 -4 2 3 4 0
3 2 -4 -2 -3 -2 -1 1 3 -1 5 4 2 -1 2 1 0 2 1 -1 3 1 -1 -0 -0 -0 1 2 3 6 3 -1 1 1 2 2 3 -1 3 2 3 1 0 -0
-0 -2 -1 -1 -1 1 -1 -1 3 4 3 1 2 6 5 0 -3 -3 -0 1 0 -1 2 1 1 0 0 1 2 2 3 5 2 1 1 3 3 1 2 4 2 2 2 1
4 1 0 0 2 -0 -1 -2 2 2 4 2 2 2 1 -0 -3 -3 -3 -2 -0 -1 -0 2 2 0 1 1 1 1 -1 2 3 2 1 -0 -1 0 -0 6 -3 -1 3 0
6 5 1 -0 1 1 2 1 -1 -2 0 -2 -1 3 -2 -0 -2 -3 -5 -4 -1 -1 -0 1 0 -1 -0 0 2 1 1 -1 -0 0 -2 -3 3 2 2 1 3 0 1 0
-1 -0 4 3 -2 -3 2 3 1 -4 -5 -2 -3 -1 4 -2 0 -5 -3 -3 -2 -1 -0 -1 -1 -1 -0 -1 -1 -0 -1 -1 0 1 3 2 0 2 1 0 -2 -2 3 -0
-1 0 -0 -1 5 5 5 2 1 -5 1 -2 -0 1 0 -0 -2 2 -0 -4 -3 -2 -0 -1 -0 -1 0 -0 -0 -1 -1 -1 -1 -2 -1 -0 1 -0 -2 -1 1 -0 1 1
-1 0 1 -0 0 0 1 -3 -2 1 -1 -1 0 -1 -1 -0 0 -1 -1 -2 -0 -0 -1 -1 -2 -2 -2 -2 -1 -0 -1 -1 -1 -2 -0 -1 -2 -2 -2 -0 -2 -0 1 -1
-2 -0 2 0 -0 0 1 1 -0 -1 -1 -1 -1 0 1 1 -0 -1 -1 -1 -1 -1 -1 -2 -3 -2 -1 -2 -2 -1 -1 0 0 -1 -1 -2 -1 1 1 1 1 1 -0 -2
-1 -2 -2 -1 -1 -1 -1 -2 -1 -0 -1 -1 -0 0 1 -1 -0 1 -1 -2 -1 -2 0 -1 -1 -2 -3 -1 -1 -1 -0 -1 -1 -1 -0 1 -0 -0 -0 -0 -1 -1 -1 -1
-1 -1 -1 -1 -3 -3 -3 -2 -1 -0 -0 -1 -1 -2 -2 -2 -1 -2 0 -1 -0 -2 -3 2 -0 2 4 1 -2 -1 -0 -1 -2 -1 -1 -2 -1 -1 -1 -1 0 0 -0 -1
-1 -1 -2 -2 -3 -2 -3 -2 -2 -3 -3 -2 -1 -0 -1 -2 -2 -2 -0 -1 -1 0 1 2 1 -0 4 -1 -2 -0 0 0 -0 -1 -1 -0 -1 -0 1 0 -0 -0 -1 -1
-2 -2 -1 1 1 -0 0 -0 0 -1 -1 -2 -2 -3 -2 -3 0 -1 0 -0 -0 -2 0 -1 0 1 1 -1 -2 -1 -1 -1 -1 -2 -2 -2 -1 -2 -1 -0 -1 -1 0 1
0 0 -1 -2 -1 -0 -0 -0 -1 -1 -1 -2 -2 -2 -2 -3 -2 -1 -1 -1 -1 -1 -1 2 1 -0 -1 -1 -1 -0 -1 -1 -1 -2 -2 -0 -0 -0 -0 1 1 1 0 1
-1 -1 -2 -2 -2 -2 -3 -2 -1 -1 -1 -1 -1 -1 -1 -1 -1 -1 -1 -1 -1 -0 -1 -1 -0 1 0 0 -1 -0 -0 -1 -0 -0 -0 0 -0 -0 -1 -0 1 1 0 0
Height
5526 5525 5525 5524 5527 5530 5535 5542 5550 5562 5571 5572 5572 5576 5576 5577 5581 5584 5588 5592 5595 5598 5601 5605 5608 5610 5613 5616 5618 5623 5627 5630 5634 5638 5640 5644 5647 5650 5653 5655 5655 5655 5655 5655
5524 5524 5525 5528 5528 5530 5532 5538 5543 5551 5556 5561 5566 5571 5571 5574 5578 5577 5580 5584 5587 5590 5593 5597 5601 5603 5605 5608 5612 5615 5619 5621 5624 5629 5633 5636 5639 5643 5647 5649 5651 5651 5651 5652
5524 5524 5526 5529 5528 5529 5532 5535 5540 5544 5552 5554 5562 5563 5560 5563 5568 5570 5571 5577 5579 5582 5585 5589 5593 5596 5599 5602 5605 5608 5610 5612 5616 5620 5623 5627 5631 5636 5639 5641 5645 5647 5647 5648
5523 5524 5527 5522 5526 5528 5531 5534 5538 5541 5549 5548 5551 5548 5548 5557 5562 5564 5566 5571 5573 5575 5578 5581 5584 5588 5591 5593 5596 5599 5601 5603 5608 5610 5613 5617 5622 5628 5631 5635 5637 5639 5642 5644
5524 5522 5524 5525 5526 5530 5532 5536 5537 5539 5540 5541 5547 5547 5550 5555 5557 5558 5561 5564 5567 5570 5572 5574 5577 5580 5583 5586 5588 5591 5593 5595 5597 5601 5605 5609 5613 5618 5623 5626 5629 5631 5634 5637
5525 5523 5522 5522 5524 5527 5531 5533 5535 5536 5538 5540 5541 5541 5545 5549 5551 5555 5558 5559 5561 5564 5566 5569 5571 5574 5576 5579 5580 5582 5584 5585 5585 5588 5596 5601 5606 5609 5613 5617 5620 5623 5626 5629
5523 5523 5523 5521 5524 5526 5530 5531 5528 5530 5534 5537 5536 5540 5540 5544 5547 5550 5553 5554 5556 5558 5560 5563 5566 5568 5569 5572 5573 5575 5571 5575 5576 5582 5588 5594 5598 5602 5606 5608 5611 5614 5617 5620
5521 5521 5523 5522 5522 5525 5527 5526 5528 5526 5529 5530 5534 5536 5537 5540 5542 5545 5547 5549 5551 5553 5555 5557 5558 5561 5563 5564 5566 5567 5570 5573 5572 5575 5579 5584 5590 5594 5598 5601 5603 5606 5610 5612
5518 5519 5519 5519 5520 5522 5522 5524 5526 5528 5527 5528 5530 5531 5534 5536 5537 5540 5543 5545 5547 5549 5550 5552 5553 5553 5554 5556 5557 5559 5562 5563 5564 5566 5570 5574 5580 5585 5588 5592 5595 5598 5601 5604
5514 5514 5516 5518 5519 5519 5520 5521 5522 5524 5526 5527 5528 5529 5531 5533 5531 5534 5538 5540 5543 5545 5546 5547 5547 5548 5548 5549 5549 5550 5553 5555 5556 5560 5561 5563 5570 5574 5580 5583 5585 5588 5591 5595
5508 5509 5511 5513 5514 5516 5516 5519 5520 5523 5525 5526 5527 5528 5530 5530 5531 5532 5536 5538 5540 5541 5541 5542 5542 5542 5543 5544 5545 5545 5546 5547 5549 5549 5553 5554 5558 5561 5565 5570 5574 5578 5580 5583
5501 5503 5504 5506 5509 5510 5513 5515 5516 5519 5523 5526 5527 5529 5530 5531 5532 5533 5535 5536 5536 5537 5538 5538 5538 5538 5539 5540 5541 5542 5543 5543 5545 5546 5547 5549 5549 5551 5551 5555 5559 5563 5567 5572
5496 5498 5499 5501 5503 5505 5509 5512 5516 5518 5521 5522 5526 5527 5527 5529 5531 5531 5532 5533 5533 5533 5533 5534 5534 5534 5534 5535 5535 5536 5538 5540 5541 5542 5543 5544 5547 5548 5548 5551 5555 5559 5562 5564
5497 5496 5498 5498 5500 5501 5504 5508 5511 5515 5515 5517 5520 5522 5524 5525 5526 5528 5529 5530 5529 5529 5529 5530 5530 5531 5531 5530 5530 5531 5532 5534 5536 5537 5538 5540 5542 5544 5545 5547 5549 5551 5553 5555
5496 5496 5496 5497 5498 5498 5499 5503 5506 5509 5511 5513 5517 5517 5518 5520 5522 5525 5525 5524 5524 5525 5526 5526 5527 5527 5528 5528 5529 5529 5530 5530 5531 5531 5533 5535 5536 5537 5539 5540 5541 5542 5543 5543
5493 5493 5493 5493 5494 5495 5496 5498 5501 5505 5507 5509 5511 5513 5515 5516 5518 5519 5520 5521 5521 5522 5522 5522 5523 5524 5525 5525 5526 5526 5526 5527 5527 5528 5529 5530 5531 5532 5532 5532 5533 5533 5533 5534
5489 5491 5491 5491 5491 5491 5493 5495 5498 5501 5503 5505 5508 5510 5511 5513 5514 5515 5516 5517 5517 5517 5517 5518 5518 5519 5520 5521 5522 5523 5523 5524 5524 5525 5525 5525 5525 5525 5525 5525 5525 5525 5525 5524
5488 5487 5487 5487 5487 5488 5489 5491 5494 5496 5498 5500 5503 5505 5506 5507 5509 5511 5511 5511 5512 5513 5513 5513 5513 5513 5514 5514 5515 5515 5516 5516 5516 5517 5517 5517 5517 5517 5517 5517 5517 5516 5516 5515
5485 5485 5484 5483 5484 5485 5486 5488 5490 5493 5493 5494 5496 5498 5499 5501 5503 5504 5504 5505 5506 5507 5507 5507 5507 5508 5508 5508 5507 5507 5506 5506 5507 5507 5507 5507 5508 5507 5507 5506 5505 5505 5505 5504
5481 5481 5482 5482 5483 5483 5485 5486 5487 5488 5489 5489 5490 5491 5492 5494 5495 5496 5497 5498 5498 5498 5498 5498 5499 5499 5499 5499 5499 5498 5497 5497 5497 5497 5497 5496 5496 5495 5495 5494 5494 5493 5492 5492
5476 5477 5477 5478 5479 5479 5480 5481 5482 5482 5483 5483 5484 5484 5485 5486 5486 5487 5488 5488 5488 5488 5488 5488 5487 5487 5487 5486 5486 5486 5486 5486 5485 5485 5484 5483 5483 5482 5482 5482 5481 5480 5479 5478
5471 5471 5471 5472 5472 5473 5473 5473 5474 5474 5475 5475 5476 5476 5476 5477 5477 5477 5477 5477 5477 5477 5476 5476 5476 5475 5475 5474 5473 5473 5473 5472 5472 5472 5471 5470 5470 5470 5469 5469 5468 5467 5466 5464
5465 5465 5465 5464 5465 5465 5465 5466 5465 5465 5466 5466 5466 5467 5467 5467 5467 5466 5466 5465 5465 5465 5465 5464 5463 5463 5462 5462 5462 5461 5460 5460 5460 5459 5458 5458 5457 5457 5455 5454 5453 5451 5450 5448
5458 5457 5457 5457 5457 5456 5456 5456 5455 5456 5456 5455 5455 5454 5454 5454 5454 5453 5453 5453 5453 5453 5452 5451 5450 5450 5449 5449 5448 5448 5447 5446 5446 5445 5444 5443 5442 5441 5440 5439 5437 5436 5434 5432
5449 5448 5448 5446 5446 5445 5444 5444 5443 5443 5443 5443 5442 5442 5442 5441 5441 5441 5441 5440 5440 5440 5439 5438 5438 5437 5436 5436 5435 5434 5434 5433 5432 5431 5430 5429 5427 5426 5424 5423 5421 5420 5419 5418
5438 5437 5436 5435 5434 5433 5432 5431 5431 5430 5430 5429 5429 5428 5428 5428 5428 5427 5426 5426 5426 5426 5425 5424 5424 5423 5422 5422 5421 5421 5420 5419 5418 5417 5416 5415 5413 5411 5409 5408 5406 5405 5404 5403
5427 5426 5424 5423 5422 5421 5420 5419 5418 5417 5416 5415 5415 5414 5414 5414 5413 5413 5412 5411 5411 5410 5410 5410 5409 5408 5408 5407 5407 5406 5405 5404 5403 5402 5401 5399 5398 5396 5394 5393 5392 5391 5390 5389